User: anonymous   Login
Location: Newark
(11.2914°S, 14.4718°E)
Time: 09:58:47
(UTC+00:00)
Language:

Courier 1B - Orbit

View from above orbital plane
View from above orbital plane
View from above satellite
View from above satellite

Ground track
Ground track

The orbit data is extracted from the following two-line orbital elements,

1    58U 60013A   19257.84613811 +.00000086 +00000-0 +34793-6 0  9995
2    58 028.3293 057.9257 0165060 299.2132 059.1996 13.46319162901312
Epoch (UTC): 14 September 2019 20:18:26
Eccentricity: 0.0165060
inclination: 28.3293°
perigee height: 962 km
apogee height: 1209 km
right ascension of ascending node: 57.9257°
argument of perigee: 299.2132°
revolutions per day: 13.46319162
mean anomaly at epoch: 59.1996°
orbit number at epoch: 90131

The dashed part of the orbit path shows where the satellite is in the earth's shadow,  

DLR